{"data":{"norad_id":58446,"intl_designator":"2023-183K","name":"STARLINK-30975","alt_names":[],"object_type":"PAYLOAD","status":"ACTIVE","operator":null,"country":"US","launch_date":"2023-11-28","launch_site_code":"AFETR","launch_vehicle":null,"mission":null,"orbit_class":"UNKNOWN","rcs_meters":null,"size_class":null,"mass_kg":null,"dimensions":null,"purposes":["comms"],"wikipedia_slug":null,"has_3d_model":false,"image_url":null,"decayed_at":null,"tle_current":{"epoch":"2026-05-24T21:50:53.168640Z","epoch_age_seconds":76643,"freshness":"FRESH","line1":"1 58446U 23183K   26144.91033760  .00001642  00000+0  69192-4 0  9993","line2":"2 58446  43.0040 330.9567 0001369 286.1187  73.9514 15.27583990138410","mean_motion":15.2758399,"eccentricity":0.0001369,"inclination_deg":43.004,"raan_deg":330.9567,"arg_perigee_deg":286.1187,"mean_anomaly_deg":73.9514,"bstar":6.9192e-5,"rev_number":13841,"period_min":94.266502491951,"perigee_km":482.09785382932,"apogee_km":483.9764433112,"semimajor_km":6861.1741485703,"source":"CELESTRAK","updated_at":"2026-05-25T13:38:18.623585Z"}}}